Tracking 29892 objects as of 21-Nov-2024
HD Live streaming from Space Station
objects crossing your sky now

THORAD AGENA D DEB

Track THORAD AGENA D DEB now!
10-day predictions


NORAD ID: 4946
Int'l Code: 1970-025GG
Perigee: 954.9 km
Apogee: 974.3 km
Inclination: 99.7 °
Period: 104.2 minutes
Semi major axis: 7335 km
RCS: 0.0081 m2 (small)
Launch date: April 8, 1970
Source: United States (US)
Launch site: AIR FORCE WESTERN TEST RANGE (AFWTR)

Note: This is SATELLITE DEBRIS
Your satellite tracking list
Your tracking list is empty




NASA's NSSDC Master Catalog

Two Line Element Set (TLE):
1 04946U 70025GG  24325.55100708  .00002308  00000-0  21969-2 0  9991
2 04946  99.6545  65.1437 0013212  41.7852  75.2076 13.81816849723711
Source of the keplerian elements: AFSPC